STARLINK-11187, 60184

Orbit data source: Space-Track

STARLINK-11187, 60184 is a payload satellite owned by SpaceX/Seattle (US) in LEO that was launched on Wed, 03 Jul 2024 UTC via an FALCON 9 launch vehicle from the Air Force Eastern Test Range (AFETR). Payload-class satellites include a variety of spacecraft equipped with specific instruments for various scientific and technological missions. These include communications satellites like Starlink; space stations such as the ISS; scientific satellites like the Hubble; Earth observation satellites from companies like Planet Labs, Umbra, and HawkEye 360; GPS; miniature CubeSats for education and research; and military/defense satellites.

Loading next visibility...
Identifier
60184, 2024-124B
Orbit
LEO
Country
Flag of USUS
Related business
Manufacturer
SpaceX/Seattle
Mission
Operational Commercial Communications
Bus & Motor
STARLINK V2MD, Unknown motor
Mass
960 kg wet, ~910 kg dry
Launch date (UTC)
2024-07-03 (1 year ago)
Launch vehicle
FALCON 9
Launch site
Air Force Eastern Test Range (AFETR)
Object type
Payload
Rocket body
Debris
Shape & HBR
Box + 2 Pan, 18.1 m
Radar Cross Section
36.964 m², Large (>1 m²)

Expand to show TLE details & history
Last TLE update: 19 hours ago

TLE from 19 hours ago
0 STARLINK-11187
1 60184U 24124B   25310.66575046  .00002523  00000-0  25655-4 0  9991
2 60184  53.1584  47.5846 0000689  89.2723 270.8374 15.69725793 77217
Epoch: 2025-11-06T15:58Z
TLE epoch observation values (Epoch: 2025-11-06T15:58:40.839Z)
Latitude
-0.00002°
Longitude
121.79362°
Altitude
360.59 km
Speed
7.694 km/s
True Right ascension
03h 10m 20s
True Declination
0° 00' 00"
Sunlit
Object was in full shadow at epoch
Visualization orbit readout
Latitude
Unknown
Longitude
Unknown
Altitude
Unknown
Speed
Unknown
Apparent Right ascension
Unknown
Apparent Declination
Unknown
Sunlit
N/A
Visualization observer readout
Local Sidereal Time
07:23:33
Azimuth
Unknown
Elevation
Unknown
Doppler factor
Unknown
Orbital elements
Apogee altitude
360.407 km
Perigee altitude
359.478 km
Semi-major axis
6,738.08 km
Eccentricity
0.00007
Inclination
53.1584°
RAAN
47.5846°
Arg. of periapsis
89.2723°
True anomaly
270.82951°
Mean anomaly
270.8374°
Eccentric anomaly
270.83345°
Mean motion
3.92409 °/min
Orbital period
91.74 mins
BSTAR
0.000025655
Loading maneuver chart data...
Computing Atmospheric mass density...
Loading historical data...
Loading historical data...
Loading historical data...
Loading historical data...
Loading historical data...
Loading historical data...
Loading historical data...

Documentation

Showing up to 5 results
|